CAPE
551 445 1654 2111 1938 1720 2104 2709 3184 3053 3048 2943 2923 2829 2491 2354 2208 2165 2081 2318 2030 1897 1998 2324 2168 2073 2240 2436 2385 2521 2497 2883 2758 2658 2706 2610 2281 2225 2294 1959 2413 2031 2547
623 642 1737 2130 2008 2213 2471 2902 2865 3022 3072 3020 2792 2812 2665 2467 2369 2153 2171 2230 1793 1721 1583 2315 2370 2250 2318 2174 1842 1963 2248 2478 2441 2183 2368 2419 2193 2492 2701 2539 2445 2172 1889
759 821 1252 2170 2274 1984 2365 2656 2673 2592 2387 2656 2893 2994 2553 2438 2417 2573 2625 2496 1928 1746 1347 1803 2358 2386 2498 2286 1886 2470 2707 2730 2780 2748 2843 2200 1923 1943 1976 2179 2450 2574 2441
994 945 1264 2144 2211 2169 2334 2633 2653 2067 2080 2016 2098 2053 2294 2320 2403 2139 1818 1765 2295 2502 2457 1570 1783 1861 2127 2448 2025 2518 2787 2731 2804 2653 2212 2466 2459 2748 2740 2825 2611 2486 2457
944 969 1203 2241 2354 2271 2321 2691 2656 2171 2070 2038 1924 1785 1615 1556 1456 1561 2158 2471 1786 1677 1935 2377 1876 2190 2722 2471 2087 1978 2471 2311 2303 1893 1691 1604 1587 1837 1837 1808 1718 1682 1675
850 941 1845 1982 1869 1846 1842 1949 2022 1990 1931 1860 1827 1739 1617 1332 1106 1103 1153 1245 2052 2412 1577 1479 1824 1790 2135 2290 2243 2233 2366 2233 2221 1480 1758 2369 2208 2721 3133 3129 3112 2866 2869
803 928 1436 2310 2055 1868 1866 1974 1996 1929 1810 1758 1744 1513 1339 1451 1663 1776 2020 1765 1598 1422 2059 2367 1653 1459 1564 1839 2106 2161 2115 2255 1923 1618 1531 2237 2257 2947 2380 1876 1785 1882 1895
849 1017 1362 1875 1857 1782 1844 1893 1846 1851 1863 1748 1627 1426 1893 1884 1633 1839 1689 1644 1659 1767 1681 1755 2265 2352 2079 1448 1413 1660 1900 1999 2208 1349 1588 1778 1788 2435 2185 2375 2232 2759 3113
1046 1117 1224 1346 1435 1692 1893 1890 1945 2004 1955 1787 1578 1941 1955 1612 1361 1376 1282 1440 1493 1588 1577 1439 1668 1906 1752 2088 2039 1644 1701 1765 1284 1098 869 1355 1942 2554 2917 2957 2310 1838 2001
1011 1089 1060 1136 1457 1415 1597 2137 2013 2039 2054 1955 2151 1861 1533 1483 1937 1427 1111 1243 1515 1587 1631 1535 1515 1669 1650 1833 1846 2186 2039 1515 1122 911 1166 1174 2127 2548 2993 2524 2800 2225 1841
990 1017 981 1076 973 1338 1773 1804 2457 2224 2136 2149 1768 1691 1367 266 236 165 157 394 1352 1343 1677 1599 1445 1426 1478 1634 1751 1982 1976 1476 1216 840 895 1407 1773 2303 2667 2948 2987 2648 2485
822 1029 948 1007 1063 1505 1637 1582 1827 1665 1419 684 647 511 48 0 0 3 67 194 725 1256 1526 1579 1417 1333 1283 1367 1167 1551 1469 1241 783 878 1197 1425 2053 1811 2262 2936 2987 2909 2896
659 1006 994 968 1240 1450 1401 1174 1201 613 452 138 72 56 17 0 0 0 12 1 10 771 633 803 847 1141 996 967 1018 887 846 917 504 625 1029 1418 1996 1880 1985 2967 3001 3237 2821
654 867 942 1031 1146 1169 1107 1012 723 250 18 1 0 0 0 0 0 0 31 2 0 116 218 287 298 405 743 983 770 729 538 664 824 557 803 1408 1743 1849 1729 2468 2472 3501 3123
576 789 928 891 971 966 957 945 473 67 4 0 0 0 0 0 0 0 19 0 0 19 58 167 217 315 387 543 721 619 625 416 412 603 592 979 1653 1933 2025 1665 2510 3048 3159
495 657 846 820 897 714 822 737 409 19 0 0 0 0 0 0 0 0 0 8 0 0 6 56 73 183 378 338 427 451 316 217 178 315 566 647 1056 1426 1984 2106 2349 2757 3275
308 423 602 698 856 650 661 521 154 4 0 0 0 0 0 0 0 0 34 66 48 57 39 57 60 76 263 359 421 537 423 338 320 225 317 493 401 808 1338 1837 3028 3033 3295
159 298 338 629 751 613 509 177 28 0 0 0 0 0 0 0 0 0 18 219 168 121 66 107 175 222 274 433 386 394 744 458 443 462 457 441 483 503 731 1547 2405 2747 2528
80 87 216 495 626 556 317 37 0 0 0 0 0 19 3 2 73 0 45 144 327 449 105 183 255 295 377 568 389 349 448 516 478 499 579 476 487 703 685 858 1974 2433 2396
12 57 169 411 455 392 208 13 0 0 6 2 0 15 106 95 104 161 68 113 437 383 185 172 224 325 408 674 678 1084 322 427 388 360 326 351 460 355 443 810 995 1398 2573
0 100 181 345 356 268 278 293 212 175 92 59 78 89 180 173 184 184 141 128 81 85 20 27 263 308 100 181 523 464 464 116 140 240 272 170 164 188 438 720 890 983 1156
39 75 234 364 403 358 325 333 455 331 302 259 163 119 136 193 271 245 225 252 196 131 58 77 261 234 67 226 297 148 192 119 0 6 10 10 21 0 0 76 284 942 1228
44 69 147 263 385 573 466 435 415 361 227 203 189 117 91 199 374 521 332 155 144 131 137 165 248 245 222 73 117 144 71 85 0 3 3 12 182 164 138 89 242 580 1091
160 100 160 147 320 576 593 602 626 604 562 198 225 172 144 52 21 162 220 290 189 80 120 214 404 361 81 51 62 67 51 68 149 59 130 108 138 54 105 251 171 657 935
234 188 201 164 423 555 747 750 698 645 434 250 217 245 104 220 255 79 0 43 288 469 260 286 456 305 289 390 216 61 27 35 12 36 73 87 70 5 36 65 104 276 834
273 335 272 262 399 532 754 727 728 745 616 516 562 510 413 307 307 27 0 0 39 81 255 385 515 517 448 271 203 172 245 170 54 76 94 144 111 98 84 85 95 43 120
CIN
-1 -18 0 0 0 -1 0 0 0 0 0 0 0 0 0 0 0 0 0 0 0 0 0 0 0 0 0 0 0 0 0 0 0 0 0 0 -2 -2 -1 -2 -4 -1 0
-7 -5 0 0 0 0 0 0 0 0 0 0 0 0 0 0 0 0 0 0 0 -2 -13 0 0 0 0 -2 -4 0 0 0 0 0 0 0 0 0 -1 0 0 0 0
-10 -1 -1 0 0 0 0 0 0 0 0 0 0 0 0 0 0 0 0 0 0 0 -23 -1 0 0 0 0 -1 0 0 0 0 0 0 -3 -5 -1 -1 0 0 0 0
-5 -3 -4 0 0 0 0 0 0 0 0 0 0 0 0 0 0 0 0 -1 0 0 0 -5 0 0 0 0 0 0 0 0 0 -2 -8 -2 0 0 0 0 0 0 0
-10 -17 -5 0 0 0 0 0 0 0 0 0 0 0 0 0 -2 -7 0 0 -2 -5 0 0 0 0 0 0 0 0 0 0 -2 -15 -34 -42 -31 -6 -5 -10 -27 -32 -29
-23 -20 0 0 0 0 0 0 0 0 0 -1 -1 0 -2 -10 -21 -19 -19 -20 0 0 -5 -3 0 0 0 0 0 0 0 0 -6 -47 -30 -6 -7 0 0 0 0 0 0
-42 -16 -2 0 0 0 0 0 0 -1 -4 -11 -7 -8 -11 -10 -5 0 0 0 0 -7 0 0 0 0 0 0 0 0 0 0 -19 -57 -66 -18 -15 0 -1 -23 -37 -40 -33
-62 -19 -6 0 0 0 0 0 0 -1 0 -7 -7 -7 0 0 -1 0 0 -9 0 0 0 0 0 0 0 -6 -13 -8 -5 -1 -6 -74 -72 -54 -53 -4 -4 0 -9 0 0
-33 -24 -22 -7 -3 0 0 0 0 0 0 -2 -6 0 0 0 0 0 0 0 0 0 0 0 0 0 0 0 0 -4 -5 -4 -63 -123 -120 -100 -45 -5 0 0 -6 -32 -29
-28 -23 -45 -35 -10 -11 -3 0 0 0 0 0 0 0 0 0 0 0 -7 -1 0 0 0 0 0 0 0 0 0 -1 -1 -2 -73 -125 -123 -148 -41 -10 0 0 0 -9 -30
-14 -25 -41 -40 -58 -25 -12 -7 -1 0 0 0 -2 0 -22 -112 -101 -116 -94 -38 0 0 0 0 0 0 0 0 0 0 -4 -47 -66 -128 -137 -95 -56 -14 -2 0 0 0 -1
-40 -25 -58 -63 -56 -18 -19 -20 -16 -15 -28 -79 -65 -78 -188 0 0 -95 -147 -80 -16 0 0 0 0 0 -1 -16 -42 -24 -40 -57 -111 -90 -99 -76 -31 -33 -9 0 0 0 0
-93 -47 -57 -52 -24 -15 -26 -42 -42 -120 -120 -148 -132 -136 -213 0 0 0 -284 -138 -244 -38 -58 -34 -25 -15 -12 -28 -41 -54 -60 -67 -128 -107 -81 -65 -30 -31 -11 0 0 0 0
-106 -63 -43 -34 -34 -46 -58 -64 -102 -141 -194 -168 0 0 0 0 0 -282 -216 -121 0 -129 -95 -87 -85 -65 -35 -19 -55 -67 -91 -89 -87 -118 -111 -47 -34 -25 -22 -2 -5 0 0
-124 -83 -48 -50 -56 -70 -65 -62 -108 -194 -216 -101 0 0 0 0 0 0 -231 0 0 -181 -157 -98 -89 -77 -79 -58 -55 -80 -89 -118 -123 -108 -123 -73 -29 -20 -13 -21 -2 0 0
-151 -126 -79 -76 -72 -102 -71 -76 -111 -256 0 0 0 0 0 0 0 0 0 -139 0 0 -248 -151 -138 -94 -77 -97 -87 -96 -131 -163 -188 -174 -138 -119 -62 -37 -11 -5 -12 -5 0
-216 -170 -142 -115 -83 -114 -101 -101 -173 -255 0 0 0 0 0 0 0 0 -133 -114 -133 -127 -132 -109 -126 -136 -108 -102 -93 -93 -124 -143 -166 -185 -183 -162 -154 -86 -54 -24 0 -3 -3
-259 -217 -186 -112 -88 -113 -132 -197 -274 0 0 0 0 0 0 0 0 0 -147 -83 -99 -120 -132 -102 -97 -107 -107 -86 -95 -106 -107 -141 -164 -156 -158 -182 -170 -124 -105 -57 -24 -15 -17
-284 -262 -216 -157 -121 -118 -171 -298 0 0 0 0 0 -169 -67 -34 -94 0 -125 -98 -69 -59 -111 -92 -81 -88 -79 -79 -99 -106 -131 -148 -155 -128 -156 -187 -191 -160 -153 -141 -66 -41 -26
-194 -303 -237 -177 -159 -152 -171 -258 0 0 -398 -311 0 -167 -113 -110 -92 -72 -119 -106 -52 -68 -105 -103 -75 -80 -85 -70 -62 -53 -130 -142 -167 -182 -191 -168 -187 -216 -203 -185 -144 -101 -52
0 -304 -260 -213 -207 -188 -186 -146 -189 -216 -265 -270 -282 -217 -105 -94 -93 -81 -90 -100 -113 -108 -155 -158 -72 -76 -117 -89 -57 -77 -103 -201 -217 -226 -219 -241 -226 -213 -189 -168 -164 -152 -134
-332 -342 -284 -228 -231 -219 -170 -184 -155 -180 -207 -230 -276 -287 -242 -149 -92 -93 -119 -130 -146 -143 -165 -127 -66 -84 -156 -97 -67 -94 -87 -154 0 -262 -299 -246 -212 0 0 -261 -220 -164 -154
-348 -366 -332 -289 -268 -206 -197 -169 -186 -189 -224 -247 -269 -304 -272 -198 -134 -92 -107 -133 -137 -144 -130 -110 -93 -108 -107 -153 -125 -101 -142 -161 -150 -348 -257 -250 -209 -216 -249 -280 -237 -198 -170
-335 -389 -365 -365 -291 -235 -215 -151 -159 -153 -141 -243 -246 -288 -264 -278 -204 -166 -111 -101 -116 -135 -102 -91 -60 -91 -179 -158 -143 -156 -197 -189 -90 -139 -191 -206 -191 -216 -218 -233 -251 -174 -172
-384 -408 -431 -438 -297 -244 -214 -170 -143 -169 -200 -278 -290 -262 -294 -264 -224 -236 0 -212 -105 -87 -104 -94 -60 -80 -90 -71 -88 -145 -169 -188 -283 -130 -119 -128 -179 -81 -246 -273 -265 -252 -154
-394 -371 -420 -422 -389 -319 -221 -207 -184 -177 -199 -201 -195 -208 -229 -247 -229 -336 0 0 -296 -225 -107 -64 -50 -43 -46 -68 -80 -93 -76 -71 -135 -71 -60 -88 -121 -168 -196 -206 -256 -309 -296
Wind_Speed
4 5 15 17 17 17 17 18 18 18 18 19 18 17 17 15 14 12 11 10 11 11 11 13 14 13 14 15 14 14 14 13 15 15 14 13 14 13 12 13 12 10 12
10 10 16 17 18 17 17 17 18 17 18 18 17 16 16 16 13 13 12 12 12 11 11 13 12 13 14 14 14 14 13 13 13 14 14 12 13 12 12 12 12 11 12
13 11 12 17 18 18 17 17 17 17 18 17 15 15 15 15 16 15 13 12 11 11 13 11 11 12 12 13 12 12 13 11 11 11 12 7 7 11 11 12 11 12 11
12 10 10 17 17 17 17 16 16 17 16 16 15 14 13 13 13 14 13 12 10 9 11 12 10 12 12 11 11 9 10 11 12 11 5 5 7 10 10 11 11 10 10
11 8 11 17 17 17 17 16 15 16 15 15 14 14 12 11 11 12 12 11 10 9 9 9 12 9 9 12 11 9 8 10 11 7 4 4 3 6 8 10 10 10 9
11 8 15 18 18 17 17 16 17 15 14 13 14 13 11 10 10 9 9 9 8 8 8 8 8 9 8 9 10 9 8 7 9 4 3 3 3 7 8 9 9 9 8
11 7 12 17 16 16 15 14 14 15 14 13 12 12 10 9 9 9 9 8 7 7 7 9 9 8 8 8 7 8 6 5 2 1 3 3 2 4 6 6 7 7 7
13 8 9 16 16 15 14 13 13 13 13 12 11 10 9 8 7 6 7 7 7 7 7 7 7 7 7 7 7 7 6 5 2 1 3 4 5 4 6 5 5 6 6
9 8 6 7 12 16 14 13 14 13 13 12 11 10 9 8 7 6 5 6 7 8 8 7 7 7 6 6 6 6 7 7 3 1 5 5 9 8 8 6 5 4 5
6 8 6 6 6 5 6 14 13 13 13 12 10 9 8 7 7 6 3 4 6 7 8 7 7 6 5 5 6 5 6 8 3 2 2 4 11 11 9 8 7 6 5
5 5 5 5 6 6 6 8 13 14 13 12 10 9 5 2 3 4 2 3 7 9 7 8 7 6 5 4 4 6 7 2 3 2 2 6 11 12 11 10 10 10 8
10 7 6 6 7 6 5 4 6 6 4 3 4 3 3 3 2 3 1 3 7 9 8 8 7 7 5 1 1 2 1 1 3 3 3 9 11 15 13 11 11 12 11
11 9 9 7 6 7 5 3 2 2 3 2 4 5 4 3 2 1 1 1 2 6 1 2 2 0 2 2 2 1 1 1 2 3 4 8 9 14 14 11 12 14 12
12 11 9 9 6 7 4 4 4 3 2 3 3 4 3 2 3 2 2 2 3 2 2 1 1 2 3 3 4 3 3 3 2 2 4 8 9 13 13 14 12 14 13
11 12 10 8 7 6 6 3 3 4 4 4 4 4 3 3 3 3 3 2 3 3 3 2 2 2 3 4 4 4 5 6 6 3 3 9 10 12 15 18 18 15 15
10 12 10 10 8 6 6 5 3 3 3 3 2 3 5 4 4 4 3 3 3 4 3 3 3 3 3 3 5 5 5 5 6 6 4 5 12 15 16 17 17 16 16
10 10 12 12 10 8 8 5 3 3 3 3 3 5 6 5 5 5 4 3 5 4 4 4 3 3 3 4 5 5 5 6 7 7 5 5 6 12 12 15 16 17 15
8 10 9 10 10 8 6 4 2 3 3 3 4 3 6 6 6 5 4 5 4 4 4 3 3 3 3 4 3 5 4 5 6 7 6 6 6 7 9 12 15 17 17
10 8 10 11 9 9 6 5 5 6 5 4 4 4 6 6 6 5 4 3 3 3 3 3 3 3 3 3 4 5 4 3 4 5 7 6 8 7 6 10 14 15 19
8 9 8 9 7 7 3 3 2 3 4 4 4 5 5 4 6 4 4 5 3 3 2 3 3 3 3 3 2 2 3 4 3 4 5 5 6 8 9 8 7 8 14
9 9 10 10 7 6 3 2 2 4 3 3 5 8 6 5 6 5 5 4 4 4 3 4 3 4 4 2 1 1 3 5 5 5 4 4 6 6 7 7 5 6 7
11 11 10 10 8 8 4 3 3 3 3 2 3 6 7 5 5 6 7 6 6 5 5 5 4 2 2 3 2 1 1 2 2 6 5 5 7 6 8 7 9 9 8
10 13 11 11 10 8 8 2 1 1 1 1 3 3 3 5 5 6 6 5 5 5 5 4 4 5 3 2 3 2 1 2 2 1 2 4 5 4 5 6 8 9 9
15 9 9 9 9 9 9 6 6 3 3 3 2 1 2 4 4 5 5 5 4 2 4 4 3 3 3 3 1 3 0 1 1 3 1 3 4 6 6 5 6 7 9
8 10 9 9 8 8 10 8 6 4 3 1 2 4 2 3 4 3 3 4 3 3 4 5 4 4 4 2 3 2 1 1 1 2 3 3 2 3 5 5 6 6 8
6 6 9 10 10 9 10 9 10 9 5 3 4 4 2 3 3 4 3 2 3 3 4 4 4 5 4 4 2 3 3 3 3 4 5 3 3 3 3 5 6 8 8
Wind_Direction
159 151 132 125 121 119 115 108 105 106 109 113 116 120 124 125 129 126 123 119 108 109 102 100 95 93 93 95 98 106 107 106 111 111 109 102 97 90 95 104 96 95 96
137 146 139 130 125 122 116 112 113 113 114 115 118 122 127 125 126 130 134 121 117 111 100 99 106 104 104 105 108 115 114 111 112 116 113 107 107 104 100 106 105 102 104
138 143 142 131 129 126 120 116 116 116 116 115 117 122 125 125 127 126 122 115 119 117 111 107 109 114 115 119 123 118 120 124 120 107 108 111 112 114 114 114 112 108 100
135 141 140 134 134 130 126 125 125 122 120 118 119 120 119 123 122 122 117 115 110 118 115 126 123 122 119 123 127 128 123 112 107 94 86 102 111 119 118 116 109 103 100
132 125 143 138 138 136 134 134 128 127 124 123 124 124 124 125 122 120 117 116 121 121 121 122 130 132 128 135 138 144 129 118 109 95 95 97 99 127 124 122 121 121 117
132 126 146 145 147 146 145 141 137 135 133 133 131 130 133 133 130 124 122 127 128 139 136 131 133 139 139 134 142 147 145 144 108 84 117 134 140 160 143 136 129 122 113
133 143 148 151 151 151 151 150 147 146 143 143 140 140 146 146 144 141 145 147 149 157 151 150 151 155 160 160 159 158 161 172 86 86 156 158 162 160 159 151 142 132 129
140 149 157 158 159 160 163 160 160 157 153 153 151 151 160 151 148 153 154 164 169 178 180 168 161 162 169 176 183 182 188 201 182 296 200 184 190 211 190 188 162 155 142
141 152 152 162 172 174 175 172 173 167 162 163 163 163 161 161 159 168 171 182 183 190 186 192 181 176 180 192 196 199 199 199 189 226 209 194 193 200 212 209 200 193 176
131 158 159 163 175 166 176 182 179 174 168 175 173 167 172 173 162 154 140 207 200 199 198 196 197 193 192 199 207 203 214 211 184 182 201 188 187 194 232 199 213 219 211
157 155 152 169 168 177 187 184 181 180 183 176 176 177 144 89 108 110 122 246 219 218 211 201 208 203 210 210 220 224 223 156 205 199 196 203 195 199 219 221 211 223 221
178 175 177 184 178 175 181 190 169 182 179 140 129 118 149 142 171 165 101 311 237 225 210 217 213 214 211 156 265 343 348 185 214 222 222 232 216 212 223 226 219 228 228
178 184 186 184 181 180 177 165 182 168 147 131 132 171 181 175 196 259 244 307 277 263 218 220 268 262 210 185 205 183 224 245 231 239 227 227 230 218 229 228 229 227 234
183 187 182 193 177 189 169 186 192 151 129 149 178 193 197 220 209 218 238 251 232 249 213 211 220 250 234 228 218 207 205 226 231 240 253 244 239 235 237 245 245 236 235
187 188 189 187 187 193 188 184 177 171 177 173 175 201 221 249 247 218 224 232 204 198 200 212 234 224 243 242 238 227 221 216 232 231 233 246 248 251 255 245 252 241 237
194 191 182 192 196 188 202 185 193 168 164 167 217 223 226 225 234 225 215 223 218 218 196 213 216 231 236 242 259 244 247 233 224 219 221 237 250 257 258 260 254 237 233
201 184 190 192 195 193 202 190 184 160 163 211 225 223 232 223 223 231 226 217 221 208 194 209 207 212 233 232 243 245 228 239 240 229 217 215 237 249 264 266 250 235 232
181 186 188 196 200 194 201 180 170 173 179 222 235 233 228 226 224 229 230 238 207 188 189 198 196 199 229 230 239 242 234 225 240 238 230 213 217 227 235 253 254 242 240
180 177 190 191 193 197 187 176 184 189 190 214 237 234 228 226 227 219 239 259 236 220 207 191 205 198 202 230 235 235 235 234 249 258 248 234 234 229 234 244 249 251 245
168 180 184 192 183 179 162 168 189 209 221 182 210 235 240 236 236 230 241 242 237 253 235 215 205 213 204 212 250 234 229 237 237 232 250 255 240 239 236 228 237 245 244
171 170 183 181 176 166 143 177 223 224 222 216 202 215 220 226 229 218 237 247 222 237 241 238 215 199 206 178 124 310 251 232 229 239 242 250 258 258 256 249 239 237 242
183 181 182 189 174 185 183 179 185 185 228 223 199 207 209 216 233 237 232 228 211 215 233 238 220 202 182 175 148 182 291 327 281 243 239 241 256 258 256 251 250 241 238
184 191 182 184 184 181 189 149 133 0 334 286 229 251 223 207 230 242 249 230 226 207 223 223 223 207 203 179 209 156 149 242 326 312 236 234 253 265 265 256 256 252 242
204 179 172 171 177 189 170 188 192 195 218 232 259 230 215 213 233 247 267 238 246 193 223 235 242 222 162 196 187 245 232 137 187 325 257 255 239 255 271 268 266 255 240
180 179 172 163 176 194 186 186 207 222 235 256 285 283 234 230 213 209 244 263 203 217 229 212 235 213 217 188 182 143 190 210 121 213 284 298 279 259 251 252 257 255 245
177 187 168 168 191 191 186 185 198 213 215 241 262 278 259 251 235 215 179 272 247 247 255 251 239 232 234 246 209 182 172 179 189 205 235 254 261 283 265 255 256 250 238